User: anonymous   Login
Location: Unspecified
(0.0000°N, 0.0000°E)
Time: 07:49:08
(UTC+00:00)
Language:

Intelsat II F-2 - Orbit

View from above orbital plane
View from above orbital plane
View from above satellite
View from above satellite

Ground track
Ground track

The orbit data is extracted from the following two-line orbital elements,

1  2639U 67001A   18112.86907681 -.00000094 +00000-0 +00000-0 0  9996
2  2639 004.0263 296.1325 0009954 305.6449 086.7694 01.00271408089395
Epoch (UTC): 22 April 2018 20:51:28
Eccentricity: 0.0009954
inclination: 4.0263°
perigee height: 35744 km
apogee height: 35828 km
right ascension of ascending node: 296.1325°
argument of perigee: 305.6449°
revolutions per day: 1.00271408
mean anomaly at epoch: 86.7694°
orbit number at epoch: 8939

The dashed part of the orbit path shows where the satellite is in the earth's shadow,  

DLR